Regional Weather Roundup
Issued by NWS Wakefield, VA

Home | Current Version | Previous Version | Graphics & Text | Print | Product List | Glossary On
Versions: 1 2 3 4 5 6 7 8 9 10 11 12 13 14 15 16 17 18 19 20 21 22 23 24 25 26 27 28 29 30 31 32 33 34 35 36 37 38 39 40 41 42 43 44 45 46 47 48 49 50
251
ASUS41 KAKQ 302115
RWRAKQ

REGIONAL WEATHER ROUNDUP
NATIONAL WEATHER SERVICE WAKEFIELD VA
500 PM EDT FRI SEP 30 2016

Note: "fair" indicates few or no clouds below 12,000 feet with no
significant weather and/or obstructions to visibility. * = Denotes
station may not report precipitation (e.g., rain,snow,etc.),
thunder or fog.

VAZ042-051-052>054-056-302200-
NORTHERN VIRGINIA

CITY           SKY/WX    TMP DP  RH WIND       PRES   REMARKS
WASH NATIONAL  DRIZZLE   65  64  97 NE12      30.12R FOG
DULLES         DRIZZLE   63  60  90 NE8       30.12S FOG
FORT BELVOIR   CLOUDY    65  62  93 VRB3      30.10S FOG
QUANTICO       CLOUDY    68  65  90 E14       30.10R
FREDERICKSBRG* CLOUDY    67  67 100 NE6       30.07R
STAFFORD*      CLOUDY    65  65 100 NE12G17   30.12S FOG
WARRENTON      CLOUDY    64  59  85 NE8       30.10R HAZE
CULPEPER*      CLOUDY    64  63  99 NE6       30.10S FOG
MANASSAS*      CLOUDY    64  64 100 NE9       30.10F FOG
LEESBURG*      CLOUDY    61  61 100 N8        30.14S FOG
WINCHESTER     CLOUDY    59  59 100 NE6       30.13S FOG
FRONT ROYAL*   CLOUDY    59  59 100 N7        30.11F
LURAY*         CLOUDY    61  61 100 N13       30.10S
$$

VAZ048-049-060>072-079>083-302200-
CENTRAL AND SOUTH CENTRAL VIRGINIA

CITY           SKY/WX    TMP DP  RH WIND       PRES   REMARKS
RICHMOND       TSTM      70  70 100 N10       30.04R VSB 1/2
CHESTERFIELD*  MOCLDY    72  57  60 NE6       30.05R
PETERSBURG*    TSTM     N/A N/A N/A CALM      30.03F
HANOVER        RAIN      69  68  96 CALM      30.07R FOG
TAPPAHANNOCK*  CLOUDY    72  72 100 NE10      30.06R
QUINTON*       CLOUDY    73  72  98 NE5       30.02S
CHARLOTTSVILLE CLOUDY    64  61  90 NE15G23   30.06F FOG
GORDONSVILLE*  CLOUDY    63  63 100 NE8G16    30.06F FOG
ORANGE*        DRIZZLE   64  64 100 N7        30.09S
LOUISA*        CLOUDY    70  68  94 NE7G16    30.06S FOG
BUMPASS*       CLOUDY    66  66 100 NE3       30.07R
FARMVILLE*     CLOUDY    70  69  98 N3        30.02R
CREWE*         CLOUDY    72  72 100 E9        30.02S
FORT PICKETT*  CLOUDY   N/A N/A N/A E10       30.02F
CHASE CITY*    CLOUDY    74  72  94 E5        29.99F
CLARKSVILLE*   MOCLDY    75  72  88 E7        29.97F
SOUTH HILL*    CLOUDY    71  71  99 CALM      30.06S
LAWRENCEVILLE* CLOUDY    71  69  95 N3        30.01S
EMPORIA*       CLOUDY    77  72  83 E6        30.02S
$$

VAZ088>098-302200-
SOUTHEAST VIRGINIA

CITY           SKY/WX    TMP DP  RH WIND       PRES   REMARKS
NORFOLK        CLOUDY    77  72  84 SE8       30.02R
VIRGINIA BEACH CLOUDY    76  73  91 VRB6      30.02R
NORFOLK NAVAL  CLOUDY    79  72  79 E7        30.03R
WEST POINT*    PTSUNNY   76  71  85 E9        30.04S
SALUDA*        CLOUDY    73  73 100 NE7       30.03S
NEWPORT NEWS   LGT RAIN  76  72  87 E13       30.02R
LANGLEY AFB    PTSUNNY   77  73  88 E10       30.02R
FORT EUSTIS    CLOUDY    77  72  83 E8        29.99R
WILLIAMSBURG*  CLOUDY    77  72  83 E3        30.03R
HR EXEC AP*    FAIR      79  72  78 E8        30.03S
FRANKLIN*      CLOUDY    76  74  92 CALM      30.01S
US460-WAKEFLD  LGT RAIN  75  72  90 VRB5      30.02R
$$

VAZ020-022-025-037-045-302200-
WEST CENTRAL AND SOUTHWEST VIRGINIA

CITY           SKY/WX    TMP DP  RH WIND       PRES   REMARKS
STAUNTON*      RAIN      59  58  98 N7        30.11R
WAYNESBORO*    CLOUDY    60  59  97 N5        30.09S VSB 1
HOT SPRINGS VA HVY RAIN  48  48 100 E10       30.09S VSB<1/4
LYNCHBURG      CLOUDY    64  63  96 N7        30.03S
DANVILLE       SUNNY     80  68  66 SE8       29.96R
SOUTH BOSTON*  CLOUDY    78  75  92 E7        29.98S
MARTINSVILLE   MOSUNNY   80  60  50 SE5       29.98S
ROANOKE        CLOUDY    70  64  81 NE7       30.03R
BLACKSBURG     SUNNY     69  64  83 E7        30.04S
DUBLIN*        MOSUNNY   78  55  44 SE10      30.01S
MARION*        PTSUNNY   67  57  70 SW6       30.04S
HILLSVILLE*    SUNNY     70  56  61 S8G17     30.02R
RICHLANDS*     CLOUDY    61  57  87 W5        30.04R
WISE*          MOSUNNY   64  43  45 S8        30.05S
ABINGDON*      PTSUNNY   66  56  69 CALM      30.02S
$$

MDZ021>025-VAZ099-100-302200-
SOUTHERN MARYLAND AND THE DELMARVA PENINSULA

CITY           SKY/WX    TMP DP  RH WIND       PRES   REMARKS
PATUXENT RIVER CLOUDY    69  65  86 E12G23    30.07S
BAY BRIDGE APT CLOUDY    66  63  88 MISG      30.10F
LEONARDTOWN    CLOUDY    68  64  88 NE5       30.09S
DOVER          CLOUDY    66  66 100 NE15G24   30.12R
GEORGETOWN     CLOUDY    67  66  97 NE18G29   30.11S
EASTON         CLOUDY    68  63  83 E16G23    30.13F
CAMBRIDGE      CLOUDY    64  63  94 NE7       30.09R
SALISBURY      CLOUDY    69  68  96 NE13      30.08S FOG
OCEAN CITY     CLOUDY    69  69 100 NE10G18   30.08S
WALLOPS ISLAND CLOUDY    70  70 100 NE17      30.07R FOG
ACCOMACK*      CLOUDY   N/A N/A N/A E8        30.06R
$$

NCZ012>017-030>032-302200-
NORTH CENTRAL AND EASTERN NORTH CAROLINA

CITY           SKY/WX    TMP DP  RH WIND       PRES   REMARKS
ROANOKE RAPIDS FAIR      77  72  83 E5        29.98F
RALEIGH        CLOUDY    82  70  66 SE10      29.96S
ELIZABETH CITY CLOUDY    78  74  87 SE3       30.02R
AHOSKIE*       CLOUDY    76  75  95 E3        30.00S
EDENTON*       CLOUDY    80  79  98 SE6       30.01F
CURRITUCK*     LGT RAIN  78  76  96 CALM      30.02F
KILL DEVIL HLS CLOUDY    80  76  90 SE10G17   30.01F
MANTEO         CLOUDY    78  74  87 SE10      30.02F
CAPE HATTERAS  LGT RAIN  75  71  87 W12G24    30.04R
TARBORO*       FAIR      80  75  86 CALM      29.99S
GOLDSBORO      CLOUDY    79  74  84 SE8       29.96S
WASHINGTON     CLOUDY    76  72  85 SE7       30.00F
GREENVILLE     MOSUNNY   81  72  74 SE9       30.00S
NEW BERN       CLOUDY    76  72  87 S3        30.00S
WILMINGTON     CLOUDY    78  73  84 E9        29.98S
$$

VAZ048-302200-
ELSEWHERE

CITY           SKY/WX    TMP DP  RH WIND       PRES   REMARKS
HARRISBURG PA  CLOUDY    58  57  97 NE6       30.18F
BALTIMORE      DRIZZLE   63  61  93 NE10      30.12F
ANNAPOLIS      CLOUDY    67  64  90 NE9       30.10F
ANDREWS AFB    CLOUDY    64  63  95 NE9       30.10R FOG
PHILADELPHIA   CLOUDY    63  59  87 NE13      30.18S
HENDERSON NC   CLOUDY    76  69  77 SE7       29.98S
GREENSBORO     MOSUNNY   82  60  47 S14       29.95S
ROCKY MOUNT    CLOUDY    79  71  76 VRB7      29.98F
$$

VAZ100-302200-
MARINE

STATION/POSITION TIME  TEMP    WIND        PRES    WAVE   SWELL
                       AIR SEA DIR/SP/G            HT/PER HT/PER
                 (UTC) (F)     (DEG/KT/KT) (MB)    (FT/S) (FT/S)
BRANDYWINE LGT   2048   66      70/ 26/ 30   N/A
CAPE MAY NJ      2048   66 69   50/ 13/ 22 1018.8F
LEWES DE         2048   68 71   60/ 27/ 30 1018.9F
OCEAN-CITY-INLET 2042   70 71   70/  6/ 11 1019.0R
WACHAPREAGUE VA  2048   73 76   40/ 10/ 11 1017.8R
THOMAS POINT MD  2100   67 71   70/ 19/ 23 1020.4F
GOOSES REEF MD   2100   69 73  100/ 17/ 21 1019.1    3/ 3
COVE POINT MD    2048   68     100/ 18/ 20 1019.0R
SOLOMONS ISLAND  2042   69 73   60/ 15/ 17   N/A
BISHOPS HEAD MD  2048   70 71   50/ 11/ 15 1018.7R
PINEY POINT MD   2048           70/ 10/ 12   N/A
POTOMAC MD       2100   71 74   70/ 17/ 19 1016.7    1/ 3
CAMBRIDGE MD     2048   68 71   60/ 14/ 21 1017.9R
LEWISETTA VA     2048   71 72   70/ 17/ 21 1017.2R
RAPPAHANNOCK LGT 2048          100/  9/ 10 1017.9R
STINGRAY PT      2050   76      10/ 12/ 14 1017.2R
YORK RVR RNG VA  2048   76      90/  9/ 11 1016.4R
YORKTOWN VA      2048   76 77  110/ 11/ 14 1016.4R
JAMESTOWN VA     2100   76 77   90/  6/ 10   N/A     0
DOMINION TERM VA 2048   78     100/  2/  5 1016.7R
KIPTOPEKE VA     2048      77  120/  9/ 11   N/A
CHES BAY BRIDGE  2048   76 77   70/ 10/ 13 1016.5R
CAPE HENRY VA    2048   76     110/ 10/ 13   N/A
WILLOUBY STN VA  2048   76      90/ 12/ 12   N/A
CAPE HENRY BUOY  2042      77                N/A     5/10   2/11
1ST LANDING BUOY 2100   76 76  130/ 10/ 12 1016.6    3/ 5
CAPE CHARLES BUO 2026      77                N/A     5/11   2/11
OFFSHORE WE BUOY 2051      77                N/A     6/10   2/11
64NM E OF VA BCH 2050   76 75  110/  8/  8 1017.2F   6/11   7/11
DUCK PIER NC     2048   77 77  130/ 16/ 18 1015.6F
44056 DUCK FRF   2041      76                N/A     5/11   2/11
OREGON INLET NC  2048   78 78  130/ 10/ 15 1016.8F
HATTERAS NC      2048   74 79  220/  9/ 12 1017.0R
DIAMOND SHLS NC  2050   76 77  250/ 19/ 27 1017.1F   4/10   3/10
CAPE LOOKOUT NC  2000   75      80/ 12/ 12 1016.0F
$$




USA.gov is the U.S. government's official web portal to all federal, state and local government web resources and services.